Flag for U.S.A. Weather past 2 weeks in Warren, Michigan, U.S.A.

Now
-3 °F

Clear.


Feels Like: -3 °F
Forecast: 0 / 11 °F
Wind: No wind

Location: Detroit City Airport

Current Time: Feb 27, 2015 at 7:27:41 AM

Latest Report: Feb 27, 2015 at 6:53 AM


Visibility: 8 mi

Pressure: 30.51 "Hg

Humidity: 75%

Dew point: -9 °F

Location of WarrenLocation

Historic Weather in Warren — Graph

°F

Warren temperature yesterday

Maximum temperature yesterday: 17 °F (at 1:53 PM)
Minimum temperature yesterday: 8 °F (at 11:53 PM)
Average temperature yesterday: 12 °F

Past Weeks' High & Low Weather Summary

 TemperatureHumidityPressure
High30 °F (Feb 22, 11:53 AM)87% (Feb 21, 8:53 PM)30.99 "Hg (Feb 21, 8:53 PM)
Low-9 °F (Feb 20, 6:53 AM)35% (Feb 19, 3:53 PM)28.06 "Hg (Feb 12, 1:53 PM)
Average11 °F60%30.16 "Hg
* Reported Feb 12 5:53 AM — Feb 27 5:53 AM, Warren, Weather by CustomWeather, © 2015

Note: Actual official high and low records may vary slightly from our data, if they occured in-between our weather recording intervals... More about our weather records

Advertising

Warren weather history for previous 24 hours

 ConditionsComfort  
Time TempWeatherWind HumidityBarometerVisibility
5:53 AM
Fri, Feb 27
0 °FClear.No wind75%30.49 "Hg8 mi
4:53 AM2 °FPassing clouds.No wind72%30.47 "Hg10 mi
3:53 AM4 °FPassing clouds.No wind73%30.44 "Hg10 mi
2:53 AM1 °FPassing clouds.No wind79%30.43 "Hg10 mi
1:53 AM4 °FClear.No wind66%30.42 "Hg10 mi
12:53 AM6 °FClear.3 mph63%30.40 "Hg10 mi
11:53 PM
Thu, Feb 26
8 °FClear.5 mph57%30.39 "Hg10 mi
10:53 PM9 °FPassing clouds.3 mph55%30.38 "Hg10 mi
9:53 PM10 °FClear.6 mph55%30.36 "Hg10 mi
8:53 PM11 °FClear.7 mph56%30.34 "Hg10 mi
7:53 PM12 °FPassing clouds.9 mph58%30.32 "Hg10 mi
6:53 PM13 °FOvercast.8 mph59%30.29 "Hg10 mi
5:53 PM15 °FOvercast.12 mph53%30.22 "Hg10 mi
4:53 PM16 °FOvercast.10 mph53%30.23 "Hg10 mi
3:53 PM16 °FOvercast.12 mph62%30.22 "Hg4 mi
2:53 PM17 °FMostly cloudy.10 mph62%30.20 "Hg3 mi
1:53 PM17 °FMostly cloudy.8 mph62%30.19 "Hg3 mi
12:53 PM16 °FMore clouds than sun.7 mph62%30.19 "Hg5 mi
11:53 AM14 °FMostly cloudy.5 mph64%30.21 "Hg4 mi
10:53 AM12 °FLight snow. Mostly cloudy.7 mph70%30.16 "Hg2 mi
9:53 AM11 °FLight snow. Mostly cloudy.8 mph70%30.15 "Hg1 mi
8:53 AM11 °FMostly cloudy.7 mph64%30.14 "Hg10 mi
7:53 AM9 °FMostly cloudy.6 mph64%30.12 "Hg10 mi
Weather by CustomWeather, © 2015

See weather overviewHow to use our weather pages